FW7761 Weather Reports


time (UTC)temp
F
wind
direction
speed
knots
gust
knots
rain 1hr
in
rain 24hr
in
rain mn
in
humidity
%
barometer
mb
20260508100533 56 114 7.0 13.9 0.00 0.24 0.00 78 1014.4
20260508095528 55 122 7.0 13.0 0.00 0.24 0.00 79 1014.4
20260508094522 56 136 6.1 13.0 0.00 0.24 0.00 80 1014.5
20260508093517 55 113 5.2 11.3 0.00 0.24 0.00 81 1014.4
20260508092530 55 133 5.2 11.3 0.00 0.24 0.00 83 1014.3
20260508091524 55 108 5.2 9.6 0.00 0.24 0.00 82 1014.0
20260508090519 55 115 4.3 7.8 0.00 0.24 0.00 84 1013.9
20260508085533 54 102 6.1 13.0 0.00 0.24 0.00 86 1013.7
20260508084528 53 106 5.2 11.3 0.00 0.24 0.00 87 1013.9
20260508083521 52 117 4.3 7.0 0.00 0.24 0.00 88 1013.8
20260508082515 51 114 3.5 6.1 0.00 0.24 0.00 90 1013.8
20260508081550 51 122 3.5 7.0 0.00 0.24 0.00 91 1013.7
20260508080525 50 85 1.7 3.5 0.00 0.24 0.00 92 1013.8
20260508075519 50 98 3.5 6.1 0.00 0.24 0.00 93 1013.7
20260508074533 49 100 2.6 5.2 0.00 0.24 0.00 95 1013.6
20260508073528 49 81 1.7 3.5 0.00 0.24 0.00 95 1013.6
20260508072543 48 51 1.7 3.5 0.00 0.24 0.00 96 1013.4
20260508071518 47 74 4.3 6.1 0.00 0.24 0.00 96 1013.2
20260508070532 47 75 4.3 7.0 0.00 0.24 0.00 96 1013.3
20260508065527 47 71 4.3 7.8 0.00 0.24 0.00 96 1013.5
20260508064520 47 84 3.5 7.0 0.00 0.24 0.00 96 1013.7
20260508063535 47 83 4.3 7.0 0.00 0.24 0.00 96 1013.7
20260508062529 46 70 3.5 6.1 0.00 0.24 0.00 96 1013.7
20260508061543 46 72 4.3 7.0 0.00 0.24 0.00 96 1013.6
20260508060519 46 71 3.5 5.2 0.00 0.24 0.00 96 1013.6
20260508055532 46 66 3.5 5.2 0.00 0.24 0.00 96 1013.6
20260508054525 45 76 1.7 2.6 0.00 0.24 0.00 96 1013.6
20260508053520 46 94 0.9 1.7 0.00 0.24 0.00 96 1013.5
20260508052534 46 94 1.7 2.6 0.00 0.24 0.00 96 1013.4
20260508051529 46 90 0.9 1.7 0.00 0.24 0.00 96 1013.2
20260508050524 46 110 0.9 1.7 0.00 0.24 0.00 96 1013.0
20260508045516 46 92 0.9 2.6 0.00 0.24 0.00 96 1012.7
20260508044532 46 68 3.5 5.2 0.00 0.24 0.00 95 1012.7
20260508043526 46 65 4.3 6.1 0.00 0.24 0.00 95 1012.6
20260508042521 46 77 1.7 2.6 0.00 0.24 0.00 95 1012.8
20260508041534 46 80 0.9 2.6 0.00 0.24 0.00 95 1012.7
20260508040530 46 95 1.7 2.6 0.00 0.24 0.00 95 1012.7
20260508035523 47 97 3.5 6.1 0.00 0.24 0.00 95 1012.7
20260508034517 45 108 3.5 6.1 0.00 0.24 0.00 96 1012.9
20260508033532 43 0.0 0.0 0.00 0.24 0.00 95 1012.9
20260508032526 42 0.0 0.0 0.00 0.24 0.00 95 1013.0
20260508031522 42 54 0.9 1.7 0.00 0.24 0.00 95 1012.6
20260508030535 42 59 0.0 1.7 0.00 0.24 0.00 95 1012.6
20260508025531 42 80 1.7 3.5 0.00 0.24 0.00 95 1012.7
20260508024524 42 68 5.2 7.0 0.00 0.24 0.00 95 1012.7
20260508023537 43 74 3.5 6.1 0.00 0.24 0.00 95 1012.8
20260508022533 42 85 2.6 3.5 0.00 0.24 0.00 95 1013.0
20260508021526 42 100 0.9 1.7 0.00 0.24 0.00 95 1013.2
20260508020520 43 113 0.9 1.7 0.00 0.24 0.00 95 1013.3
20260508015535 43 88 0.9 1.7 0.00 0.24 0.00 95 1013.2
20260508014529 42 0.0 0.0 0.00 0.24 0.00 95 1013.2
20260508013522 43 72 0.9 2.6 0.00 0.24 0.00 95 1013.2
20260508012518 42 70 1.7 2.6 0.00 0.24 0.00 95 1013.2
20260508011533 41 76 0.0 1.7 0.00 0.24 0.00 95 1013.4
20260508010526 42 76 0.9 2.6 0.00 0.24 0.00 95 1013.5
20260508005521 41 107 0.0 0.9 0.00 0.24 0.00 94 1013.5
20260508004534 42 0.0 0.0 0.00 0.24 0.00 94 1013.6
20260508003609 43 99 0.0 0.9 0.00 0.24 0.00 94 1013.8
20260508002523 43 0.0 0.0 0.00 0.24 0.00 94 1014.0
20260508001539 43 0.0 0.0 0.00 0.24 0.00 94 1014.1
20260508000532 43 0.0 0.0 0.00 0.24 0.00 94 1014.4
20260507235548 43 0.0 0.0 0.00 0.24 0.00 94 1014.3
20260507234521 43 0.0 0.0 0.00 0.24 0.00 94 1014.3
20260507233556 43 71 0.9 2.6 0.00 0.24 0.00 94 1014.4
20260507232530 43 73 1.7 3.5 0.00 0.24 0.00 94 1014.4
20260507231524 43 70 3.5 5.2 0.00 0.24 0.00 94 1014.4
20260507230518 43 65 0.9 2.6 0.00 0.24 0.00 94 1014.7
20260507225558 42 0.0 0.0 0.00 0.24 0.00 93 1014.8
20260507224527 43 0.0 0.0 0.00 0.24 0.00 93 1014.8
20260507223521 43 0.0 0.0 0.00 0.24 0.00 93 1014.9
20260507222536 44 0.0 0.0 0.00 0.24 0.00 93 1014.9
20260507221529 44 66 1.7 3.5 0.00 0.24 0.00 93 1014.9
20260507220524 45 61 2.6 5.2 0.00 0.24 0.00 93 1014.9
20260507215518 45 77 3.5 5.2 0.00 0.24 0.24 93 1014.8
20260507214534 44 62 0.9 2.6 0.00 0.24 0.24 93 1015.0
20260507213527 45 67 4.3 7.0 0.00 0.24 0.24 93 1014.9
20260507212605 46 85 0.9 3.5 0.00 0.24 0.24 93 1014.9
20260507211517 46 67 1.7 2.6 0.00 0.24 0.24 93 1014.9
20260507210533 45 66 0.9 2.6 0.00 0.24 0.24 92 1014.8
20260507205526 46 91 0.9 0.9 0.00 0.24 0.24 92 1014.6
20260507204521 46 101 0.0 0.9 0.00 0.24 0.24 91 1014.5
20260507203535 46 0.0 0.0 0.00 0.24 0.24 91 1014.3
20260507202529 47 99 0.9 0.9 0.00 0.24 0.24 91 1014.1
20260507201523 47 107 0.9 1.7 0.00 0.24 0.24 90 1013.9
20260507200518 47 124 0.9 1.7 0.00 0.24 0.24 89 1013.7
20260507195533 48 109 1.7 3.5 0.00 0.24 0.24 88 1013.4
20260507194529 48 103 1.7 3.5 0.00 0.24 0.24 88 1013.3
20260507193522 48 106 2.6 5.2 0.00 0.24 0.24 88 1013.0
20260507192516 49 115 2.6 3.5 0.00 0.24 0.24 87 1013.0
20260507191532 50 107 1.7 2.6 0.00 0.24 0.24 86 1012.9
20260507190525 50 105 2.6 5.2 0.00 0.24 0.24 85 1012.8
20260507185519 51 103 2.6 5.2 0.00 0.24 0.24 83 1012.6
20260507184534 52 106 3.5 6.1 0.00 0.24 0.24 81 1012.5
20260507183529 53 121 3.5 6.1 0.00 0.24 0.24 78 1012.5
20260507182522 53 113 3.5 7.0 0.00 0.24 0.24 80 1012.5
20260507181517 53 97 5.2 8.7 0.00 0.24 0.24 80 1012.4
20260507180554 53 106 3.5 7.8 0.00 0.24 0.24 80 1012.5
20260507175526 53 98 4.3 8.7 0.00 0.24 0.24 80 1012.6
20260507174521 53 100 3.5 7.0 0.00 0.24 0.24 81 1012.5
20260507173555 52 105 3.5 6.1 0.00 0.24 0.24 82 1012.6
20260507172529 52 115 2.6 5.2 0.00 0.24 0.24 82 1012.9
20260507171523 52 104 2.6 5.2 0.00 0.24 0.24 82 1012.8
20260507170519 52 101 2.6 7.0 0.00 0.24 0.24 82 1012.9
20260507165534 52 88 2.6 5.2 0.00 0.24 0.24 82 1012.9
20260507164526 51 105 2.6 5.2 0.00 0.24 0.24 82 1012.9
20260507163521 51 107 4.3 7.0 0.00 0.24 0.24 81 1013.1
20260507162534 51 92 3.5 6.1 0.00 0.24 0.24 83 1013.0
20260507161550 51 111 4.3 7.8 0.00 0.24 0.24 82 1012.8
20260507160522 51 109 4.3 7.8 0.00 0.24 0.24 83 1012.5
20260507155518 51 97 7.0 12.2 0.00 0.24 0.24 85 1012.4
20260507154531 50 103 6.1 8.7 0.00 0.24 0.24 87 1012.5
20260507153525 50 87 5.2 9.6 0.00 0.24 0.24 90 1012.5
20260507152519 49 74 6.1 9.6 0.01 0.24 0.24 90 1012.6
20260507151533 49 72 7.8 14.8 0.03 0.24 0.24 90 1012.4
20260507150527 49 75 7.0 13.9 0.05 0.24 0.24 90 1012.3
20260507145602 49 81 7.0 13.0 0.09 0.24 0.24 90 1012.4
20260507144535 49 71 8.7 15.6 0.19 0.24 0.24 91 1012.4
20260507143529 49 70 7.0 13.9 0.23 0.24 0.24 92 1012.7
20260507142523 49 68 10.4 13.9 0.22 0.23 0.23 92 1012.9
20260507141518 49 70 6.1 8.7 0.20 0.21 0.21 91 1013.4
20260507140525 49 70 2.6 3.5 0.18 0.19 0.19 90 1013.9
20260507135527 50 0 0.9 1.7 0.14 0.15 0.15 88 1013.9
20260507134540 50 352 0.0 1.7 0.04 0.05 0.05 87 1013.9
20260507133535 50 50 2.6 6.1 0.01 0.01 0.01 86 1013.7
20260507132529 50 74 5.2 7.8 0.01 0.01 0.01 86 1013.8
20260507131543 50 6 2.6 5.2 0.01 0.01 0.01 85 1013.8
20260507130518 50 326 3.5 9.6 0.01 0.01 0.01 86 1013.5
20260507125530 50 295 5.2 13.0 0.01 0.01 0.01 85 1013.2
20260507124526 51 276 7.8 13.0 0.01 0.01 0.01 82 1013.1
20260507123520 52 283 10.4 16.5 0.00 0.00 0.00 77 1013.0
20260507122535 57 272 11.3 20.9 0.00 0.00 0.00 74 1013.0
20260507121528 58 290 1.7 3.5 0.00 0.00 0.00 68 1013.0
20260507120523 59 225 0.9 3.5 0.00 0.00 0.00 68 1013.2
20260507115538 57 193 0.0 0.9 0.00 0.00 0.00 69 1013.3
20260507114552 57 208 1.7 3.5 0.00 0.00 0.00 72 1013.3
20260507113546 57 172 1.7 2.6 0.00 0.00 0.00 69 1013.5
20260507112520 57 117 2.6 6.1 0.00 0.00 0.00 68 1013.6
20260507111535 57 121 4.3 8.7 0.00 0.00 0.00 66 1013.6
20260507110529 57 109 6.1 9.6 0.00 0.00 0.00 66 1013.6
20260507105525 57 128 5.2 9.6 0.00 0.00 0.00 64 1013.7
20260507104517 58 126 5.2 8.7 0.00 0.00 0.00 65 1013.6
20260507103531 58 121 6.1 11.3 0.00 0.00 0.00 64 1013.7
20260507102547 58 115 7.0 12.2 0.00 0.00 0.00 64 1013.7
20260507101540 57 105 7.0 12.2 0.00 0.00 0.00 65 1013.7